sat.trackr.live / text

‹ back to catalog

STARLINK-6157

NORAD 56379 · 2023-061F

PAYLOAD ACTIVE UNKNOWN

§ Identity

Operator
Country
US
Launch date
2023-05-04
Launch site
AFETR
Launch vehicle
Mass (kg)
RCS (m²)

Purposes: comms

External: N2YO · Heavens-Above · Gunter

§ Orbital elements

Epoch: 2026-09-20T11:46:02.424576Z

Period
94.26 min
Inclination
43.0042°
Eccentricity
0.0002006
Mean motion
15.27610999 rev/d
Perigee alt
481.6 km
Apogee alt
484.3 km
Semi-major
6,861.1 km
B*
-2.4147e-4
RAAN
177.6238°
Arg perigee
258.0541°
Mean anomaly
102.0085°
Rev number
18,764

§ Raw data

STARLINK-61571 56379U 23061F   26263.49030584 -.00006908  00000+0 -24147-3 0  99992 56379  43.0042 177.6238 0002006 258.0541 102.0085 15.27610999187643

JSON: /api/v1/satellites/56379 · /tle

For live sub-satellite position, see the globe view (requires WebGL).

§ Visibility from observer

Set your observer location to see the next 7 days of passes ≥ 10°. The values pass through the URL so the page stays shareable.

No JS? Fill the form by hand. The geolocation button needs JavaScript.